Location: Gilevgi
(36.8751°N, 30.0581°E)
Time: 02:38:17
(UTC+00:00)

MOS 1 Rocket - Pass Details

Date: 11 December 2025
Orbit: 609 x 814 km, 97.4° (Epoch: 14 January)

Event Time Altitude Azimuth Distance (km) Brightness Sun altitude
Rises 15:28:21 0° 153° (SSE) 3,064 6.6 -8.9°
Reaches altitude 10° 15:30:35 10° 148° (SSE) 2,182 5.8 -9.3°
Maximum altitude 15:35:13 50° 73° (ENE) 944 3.6 -10.2°
Drops below altitude 10° 15:40:09 10° 360° (N) 2,319 5.8 -11.1°
Sets 15:42:35 0° 355° (N) 3,277 6.6 -11.6°
